Location: Complexul Astronomic Baia Mare
(47.6577°N, 23.5639°E)
Time: 13:26:42
(UTC+03:00)

ISS - Pass Details

Date: 07 June 2017
Orbit: 401 x 408 km, 51.6° (Epoch: 23 June)

Event Time Altitude Azimuth Distance (km) Brightness Sun altitude
Rises 23:35:44 0° 286° (WNW) 2,338 0.7 -15.4°
Reaches altitude 10° 23:38:18 10° 266° (W) 1,472 -0.7 -15.6°
Maximum altitude 23:40:33 17° 223° (SW) 1,108 -1.8 -15.7°
Enters shadow 23:40:45 17° 218° (SW) 1,111 -1.9 -15.7°
